Weather History for KPKD - November, 2014

Change the Weather History Date:

Wednesday, November 26, 2014

  Actual Average Record
Temperature  
Mean Temperature 4 °F -  
Max Temperature 18 °F 29 °F 50 °F (1962)
Min Temperature -9 °F 12 °F -19 °F (1977)
Degree Days  
Heating Degree Days 60    
Moisture  
Dew Point 3 °F    
Average Humidity 75    
Maximum Humidity 88    
Minimum Humidity 46    
Precipitation  
Precipitation 0.00 in - - ()
Sea Level Pressure  
Sea Level Pressure 30.30 in    
Wind  
Wind Speed 9 mph (North)    
Max Wind Speed 16 mph    
Max Gust Speed -    
Visibility 9 miles    
Events Snow    
Averages and records for this station are not official NWS values.
T = Trace of Precipitation, MM = Missing Value Source: NWS Daily Summary

Daily Weather History Graph

Daily Weather History Graph

Search for Another Location

Airport or City:

Trip Planner

Search our weather history database for the weather conditions in past years. The results will help you decide how hot, cold, wet, or windy it might be!

Date:

Astronomy

Nov. 26, 2014 Rise Set
Actual Time 7:38 AM CST 4:36 PM CST
Civil Twilight 7:04 AM CST 5:10 PM CST
Nautical Twilight 6:26 AM CST 5:48 PM CST
Astronomical Twilight 5:50 AM CST 6:24 PM CST
Moon 11:06 AM CST (11/26) 9:15 PM CST (11/26)
Length of Visible Light 10h 05m
Length of Day
8h 57m
Waxing Crescent, 21% of the Moon is Illuminated
Nov 26
Waxing Crescent
Nov 29
First Quarter
Dec 6
Full
Dec 14
Last Quarter
Dec 21
New

Hourly Weather History & Observations

Time (CST) Temp. Windchill Dew Point Humidity Pressure Visibility Wind Dir Wind Speed Gust Speed Precip Events Conditions
12:53 AM 17.1 °F 11.7 °F 12.0 °F 81% 30.10 in 6.0 mi East 3.5 mph - 0.00 in Snow Light Snow
1:53 AM 17.1 °F 11.7 °F 12.0 °F 81% 30.11 in 10.0 mi NNE 3.5 mph - 0.00 in   Overcast
2:53 AM 18.0 °F 11.1 °F 12.9 °F 81% 30.15 in 10.0 mi North 4.6 mph - N/A   Overcast
3:53 AM 17.1 °F 8.7 °F 12.9 °F 84% 30.16 in 5.0 mi North 5.8 mph - 0.00 in Snow Light Snow
4:53 AM 17.1 °F 4.3 °F 14.0 °F 88% 30.18 in 5.0 mi North 11.5 mph - 0.00 in Snow Light Snow
5:22 AM 17.1 °F 7.6 °F 14.0 °F 88% 30.10 in 6.0 mi North 6.9 mph - 0.00 in Snow Light Snow
5:36 AM 17.1 °F 7.6 °F 12.9 °F 84% 30.11 in 9.0 mi North 6.9 mph - 0.00 in   Overcast
5:53 AM 17.1 °F 3.6 °F 12.0 °F 81% 30.20 in 10.0 mi North 12.7 mph - 0.00 in   Overcast
6:09 AM 16.0 °F 2.3 °F 12.0 °F 84% 30.13 in 10.0 mi North 12.7 mph - N/A   Overcast
6:36 AM 15.1 °F -0.1 °F 10.0 °F 80% 30.14 in 10.0 mi North 15.0 mph - N/A   Overcast
6:48 AM 15.8 °F 0.3 °F 10.4 °F 79% 30.15 in 10.0 mi North 16.1 mph - N/A   Overcast
6:53 AM 15.1 °F 0.5 °F 10.0 °F 80% 30.24 in 10.0 mi North 13.8 mph - N/A   Overcast
7:13 AM 14.0 °F 2.0 °F 9.0 °F 80% 30.15 in 10.0 mi NNE 9.2 mph - N/A   Overcast
7:53 AM 12.9 °F -1.6 °F 8.1 °F 81% 30.27 in 10.0 mi North 12.7 mph - N/A   Overcast
8:10 AM 12.9 °F -0.9 °F 8.1 °F 81% 30.19 in 9.0 mi NNE 11.5 mph - N/A   Overcast
8:53 AM 12.0 °F -1.3 °F 7.0 °F 80% 30.30 in 9.0 mi North 10.4 mph - 0.00 in Snow Light Snow
9:53 AM 10.9 °F -2.6 °F 5.0 °F 77% 30.32 in 10.0 mi North 10.4 mph - 0.00 in   Overcast
10:46 AM 12.9 °F -2.2 °F 6.1 °F 74% 30.25 in 10.0 mi North 13.8 mph - 0.00 in   Overcast
10:53 AM 12.0 °F -4.5 °F 3.9 °F 70% 30.35 in 10.0 mi North 16.1 mph - 0.00 in   Overcast
11:53 AM 12.9 °F -2.2 °F 3.9 °F 67% 30.33 in 10.0 mi North 13.8 mph - N/A   Mostly Cloudy
12:14 PM 14.0 °F 2.0 °F 3.9 °F 64% 30.24 in 10.0 mi NNW 9.2 mph - N/A   Scattered Clouds
12:53 PM 12.9 °F -0.2 °F 1.9 °F 62% 30.35 in 10.0 mi NNW 10.4 mph - N/A   Clear
1:53 PM 12.0 °F -2.0 °F -0.9 °F 56% 30.36 in 10.0 mi North 11.5 mph - N/A   Mostly Cloudy
2:53 PM 10.9 °F -4.1 °F -6.0 °F 47% 30.38 in 10.0 mi NNW 12.7 mph - N/A   Overcast
3:53 PM 9.0 °F -5.9 °F -8.0 °F 46% 30.41 in 10.0 mi NNW 11.5 mph - N/A   Clear
4:53 PM 3.9 °F -10.4 °F -9.0 °F 55% 30.44 in 10.0 mi NNW 9.2 mph - N/A   Clear
5:53 PM 1.0 °F -14.0 °F -8.0 °F 66% 30.47 in 10.0 mi NNW 9.2 mph - N/A   Clear
6:53 PM -2.0 °F -17.7 °F -9.0 °F 72% 30.49 in 10.0 mi NNW 9.2 mph - N/A   Clear
7:53 PM -6.0 °F -21.5 °F -11.0 °F 79% 30.52 in 10.0 mi NNW 8.1 mph - N/A   Clear
8:53 PM -6.0 °F -21.5 °F -11.0 °F 79% 30.53 in 10.0 mi NNW 8.1 mph - N/A   Clear
9:53 PM -9.0 °F -22.3 °F -13.0 °F 83% 30.53 in 10.0 mi NNW 5.8 mph - N/A   Clear
10:53 PM -9.0 °F -23.8 °F -13.0 °F 83% 30.55 in 10.0 mi NW 6.9 mph - N/A   Clear
11:53 PM -8.0 °F -19.2 °F -13.0 °F 79% 30.56 in 10.0 mi NW 4.6 mph - N/A   Clear